Regional Weather Roundup
Issued by NWS Cleveland, OH

Home | Current Version | Previous Version | Text Only | Print | Product List | Glossary Off
Versions: 1 2 3 4 5 6 7 8 9 10 11 12 13 14 15 16 17 18 19 20 21 22 23 24 25 26 27 28 29 30 31 32 33 34 35 36 37 38 39 40 41 42 43 44 45 46 47 48 49 50

000
ASUS41 KCLE 311100
RWRCLE
OHIO REGIONAL WEATHER ROUNDUP
NATIONAL WEATHER SERVICE WILMINGTON, OH
700 AM EDT FRI OCT 31 2014

NOTE: "FAIR" INDICATES FEW OR NO CLOUDS BELOW 12,000 FEET WITH NO
SIGNIFICANT WEATHER AND/OR OBSTRUCTIONS TO VISIBILITY.

OHZ001>008-015>018-024>027-034-035-043-044-311200-
   NORTHWEST OHIO

CITY           SKY/WX    TMP DP  RH WIND       PRES   REMARKS
DEFIANCE       CLOUDY    43  37  79 SW5       29.93F
FINDLAY        CLOUDY    44  35  70 SW7       29.93F
TOLEDO EXPRESS CLOUDY    43  35  73 SW7       29.92F
TOLEDO METCALF CLOUDY    44  35  70 SW7       29.94F
LIMA           NOT AVBL
$$

OHZ009>014-019>023-028>033-038-089-311200-
   NORTHEAST OHIO

CITY           SKY/WX    TMP DP  RH WIND       PRES   REMARKS
CLE-HOPKINS    CLOUDY    43  36  76 S6        29.97F
CLE-LAKEFRONT    N/A    N/A N/A N/A MISG        N/A
CUY CO. ARPT   CLOUDY    45  37  76 S8        29.99
LORAIN-ELYRIA  CLOUDY    43  37  79 SW5       29.95F
ASHTABULA      CLOUDY    41  38  89 S5        29.95F
AKRON-CANTON   CLOUDY    44  38  79 CALM      29.95F
WOOSTER        NOT AVBL
MANSFIELD      CLOUDY    41  34  76 S6        29.94F
YOUNGSTOWN     CLOUDY    43  37  79 S5        29.95F
$$

OHZ042-051>053-060>062-070>072-077>081-311200-
  SOUTHWEST OHIO

CITY           SKY/WX    TMP DP  RH WIND       PRES   REMARKS
CINC-COVINGTON CLOUDY    44  41  89 CALM      29.98S
CINC-LUNKEN    CLOUDY    43  40  89 S3        30.00F
HAMILTON       PTCLDY    40  39  97 CALM      29.99F
DAYTON         NOT AVBL
WRIGHT-PAT AFB CLOUDY    41  38  87 S5        29.97F
DAYTON GENERAL PTCLDY    39  37  92 S3        29.97S
WILMINGTON     CLOUDY    41  37  86 S3        29.97F
$$

OHZ036-037-039>041-045>050-054>059-063>069-073>076-082>088-311200-
  CENTRAL AND SOUTHEAST OHIO

CITY           SKY/WX    TMP DP  RH WIND       PRES   REMARKS
COLUMBUS       CLOUDY    41  36  82 S3        29.97F
OSU AIRPORT    CLOUDY    43  35  73 S7        29.96F
BOLTON FIELD   NOT AVBL
RICKENBACK AFB NOT AVBL
NEWARK         CLOUDY    43  36  76 SW5       29.97F
MARION         CLOUDY    43  34  70 SW6       29.95F
LANCASTER      CLOUDY    42  38  85 S3        29.98F
ZANESVILLE     LGT RAIN  41  36  82 W3        29.98S
NEW PHILLY     CLOUDY    44  40  85 CALM      29.97F
$$



USA.gov is the U.S. government's official web portal to all federal, state and local government web resources and services.